WM0F Weather Reports


time (UTC)temp
F
wind
direction
speed
knots
gust
knots
rain 1hr
in
rain 24hr
in
rain mn
in
humidity
%
barometer
mb
20260505040512 48 187 0.9 1.7 0.00 0.02 0.02 86 1012.8
20260505040022 48 184 0.0 1.7 0.00 0.02 0.02 86 1012.8
20260505035509 49 182 0.0 1.7 0.00 0.02 0.02 86 1012.8
20260505035007 49 182 0.0 1.7 0.00 0.02 0.02 86 1012.6
20260505034526 49 182 0.0 1.7 0.00 0.02 0.02 85 1012.7
20260505034008 49 182 0.0 1.7 0.00 0.02 0.02 85 1012.8
20260505033509 49 182 0.0 0.0 0.00 0.02 0.02 85 1012.8
20260505033026 49 182 0.0 0.0 0.00 0.02 0.02 86 1012.7
20260505032511 49 182 0.0 0.0 0.00 0.02 0.02 86 1012.8
20260505032011 49 182 0.0 1.7 0.00 0.02 0.02 86 1012.7
20260505031527 49 182 0.0 1.7 0.00 0.02 0.02 85 1012.6
20260505031009 49 182 0.0 1.7 0.00 0.02 0.02 85 1012.7
20260505030506 49 182 0.0 1.7 0.00 0.02 0.02 85 1012.7
20260505030027 49 183 0.0 1.7 0.00 0.02 0.02 85 1012.6
20260505025511 50 256 0.0 0.0 0.01 0.02 0.02 84 1012.7
20260505025010 50 256 0.0 0.0 0.01 0.02 0.02 84 1012.4
20260505024524 50 256 0.0 0.0 0.01 0.02 0.02 84 1012.0
20260505024009 50 256 0.0 0.0 0.01 0.02 0.02 84 1011.8
20260505023509 50 256 0.0 0.9 0.01 0.02 0.02 84 1011.9
20260505023028 50 256 0.0 1.7 0.01 0.02 0.02 83 1011.8
20260505022509 50 256 0.0 1.7 0.02 0.02 0.02 83 1011.7
20260505022010 50 247 0.0 0.9 0.02 0.02 0.02 84 1011.6
20260505021526 50 245 0.0 0.9 0.02 0.02 0.02 84 1011.5
20260505021007 50 245 0.0 1.7 0.02 0.02 0.02 84 1011.5
20260505020509 50 245 0.0 2.6 0.02 0.02 0.02 83 1011.6
20260505020035 50 280 0.0 3.5 0.02 0.02 0.02 83 1011.8
20260505015510 50 280 0.0 3.5 0.01 0.01 0.01 82 1011.8
20260505015009 50 272 0.0 2.6 0.01 0.01 0.01 83 1011.9
20260505014535 51 248 0.0 1.7 0.01 0.01 0.01 82 1011.7
20260505014007 51 248 0.0 1.7 0.01 0.01 0.01 81 1011.6
20260505013513 51 239 0.0 1.7 0.01 0.01 0.01 81 1011.8
20260505013003 51 239 0.0 2.6 0.01 0.01 0.01 80 1011.8
20260505012502 51 253 0.0 3.5 0.00 0.00 0.00 78 1011.9
20260505012002 52 253 0.0 7.8 0.00 0.00 0.00 77 1012.0
20260505011503 52 258 1.7 7.8 0.00 0.00 0.00 76 1012.1
20260505011002 52 251 2.6 7.8 0.00 0.00 0.00 76 1012.1
20260505010503 52 272 1.7 7.0 0.00 0.00 0.00 75 1012.1
20260505010004 53 272 2.6 9.6 0.00 0.00 0.00 74 1012.1
20260505005503 53 280 5.2 9.6 0.00 0.00 0.00 72 1012.0
20260505005003 54 285 4.3 12.2 0.00 0.00 0.00 70 1012.0
20260505004507 55 262 4.3 12.2 0.00 0.00 0.00 68 1011.8
20260505004003 55 299 4.3 11.3 0.00 0.00 0.00 65 1011.9
20260505003503 56 291 4.3 9.6 0.00 0.00 0.00 63 1011.8
20260505003004 56 285 3.5 9.6 0.00 0.00 0.00 62 1011.8
20260505002502 56 272 3.5 9.6 0.00 0.00 0.00 61 1011.7
20260505002003 57 320 2.6 7.8 0.00 0.00 0.00 61 1011.7
20260505001503 57 285 2.6 7.0 0.00 0.00 0.00 61 1011.6
20260505001006 57 2 0.0 3.5 0.00 0.00 0.00 57 1011.5
20260505000505 58 8 0.9 3.5 0.00 0.00 0.00 56 1011.4
20260505000007 58 8 0.0 4.3 0.00 0.00 0.00 56 1011.3
20260504235503 58 8 1.7 6.1 0.00 0.00 0.00 55 1011.5
20260504235002 58 22 0.9 6.1 0.00 0.00 0.00 52 1011.5
20260504234504 58 337 1.7 8.7 0.00 0.00 0.00 53 1011.5
20260504234002 58 292 3.5 8.7 0.00 0.00 0.00 51 1011.4
20260504233502 59 5 1.7 10.4 0.00 0.00 0.00 49 1011.3
20260504233006 60 335 4.3 10.4 0.00 0.00 0.00 52 1011.5
20260504232505 60 306 0.9 9.6 0.00 0.00 0.00 51 1011.7
20260504232005 61 264 4.3 11.3 0.00 0.00 0.00 45 1011.3
20260504231507 61 289 6.1 11.3 0.00 0.00 0.00 41 1011.1
20260504231003 62 254 0.0 7.0 0.00 0.00 0.00 41 1011.0
20260504230505 62 251 0.9 7.0 0.00 0.00 0.00 41 1010.8
20260504230006 62 272 2.6 9.6 0.00 0.00 0.00 40 1010.7
20260504225506 62 285 2.6 10.4 0.00 0.00 0.00 40 1010.5
20260504225003 63 247 4.3 10.4 0.00 0.00 0.00 39 1010.3
20260504224516 63 280 2.6 10.4 0.00 0.00 0.00 39 1010.1
20260504224005 64 299 5.2 10.4 0.00 0.00 0.00 38 1010.1
20260504223503 64 309 4.3 13.0 0.00 0.00 0.00 37 1010.0
20260504223010 64 314 5.2 13.0 0.00 0.00 0.00 37 1010.0
20260504222503 65 330 6.1 12.2 0.00 0.00 0.00 36 1010.1
20260504222003 65 280 4.3 12.2 0.00 0.00 0.00 37 1010.0
20260504221506 65 333 4.3 10.4 0.00 0.00 0.00 37 1009.9
20260504221005 65 334 4.3 10.4 0.00 0.00 0.00 36 1010.0
20260504220503 65 321 4.3 10.4 0.00 0.00 0.00 34 1010.1
20260504220006 66 23 1.7 13.9 0.00 0.00 0.00 34 1010.1
20260504215504 66 66 1.7 13.9 0.00 0.00 0.00 36 1010.2
20260504215004 66 339 2.6 6.1 0.00 0.00 0.00 33 1010.4
20260504214508 66 6 2.6 6.1 0.00 0.00 0.00 35 1010.3
20260504214003 65 4 0.9 6.1 0.00 0.00 0.00 36 1010.5
20260504213506 64 343 0.0 4.3 0.00 0.00 0.00 37 1010.6
20260504213020 64 343 0.0 4.3 0.00 0.00 0.00 37 1010.7
20260504212504 63 347 1.7 5.2 0.00 0.00 0.00 38 1010.7
20260504212003 63 316 0.9 9.6 0.00 0.00 0.00 38 1010.8
20260504211528 63 340 3.5 12.2 0.00 0.00 0.00 37 1011.0
20260504211004 63 320 3.5 12.2 0.00 0.00 0.00 38 1011.0
20260504210504 64 339 6.1 13.9 0.00 0.00 0.00 37 1011.1
20260504210010 64 340 7.0 16.5 0.00 0.00 0.00 36 1011.1
20260504205504 64 347 6.1 20.9 0.00 0.00 0.00 36 1010.9
20260504205005 65 329 9.6 21.7 0.00 0.00 0.00 34 1010.9
20260504204515 66 335 12.2 21.7 0.00 0.00 0.00 34 1010.4
20260504204003 66 316 12.2 19.1 0.00 0.00 0.00 32 1010.3
20260504203503 66 335 8.7 18.2 0.00 0.00 0.00 31 1010.1
20260504203013 66 335 7.8 20.0 0.00 0.00 0.00 32 1010.0
20260504202503 65 20 6.1 20.9 0.00 0.00 0.00 32 1009.7
20260504202003 65 12 10.4 20.9 0.00 0.00 0.00 33 1009.6
20260504201513 64 323 7.8 20.0 0.00 0.00 0.00 32 1009.9
20260504201004 64 329 6.1 20.0 0.00 0.00 0.00 34 1009.8
20260504200504 64 327 10.4 22.6 0.00 0.00 0.00 32 1010.0
20260504200016 65 336 8.7 25.2 0.00 0.00 0.00 31 1010.1
20260504195503 67 339 10.4 25.2 0.00 0.00 0.00 28 1010.1
20260504195005 68 344 10.4 20.0 0.00 0.00 0.00 25 1009.9
20260504194513 69 322 10.4 18.2 0.00 0.00 0.00 22 1009.6
20260504194005 69 327 5.2 19.1 0.00 0.00 0.00 22 1009.5
20260504193505 70 344 7.8 19.1 0.00 0.00 0.00 21 1009.5
20260504193003 71 354 7.0 15.6 0.00 0.00 0.00 21 1009.4
20260504192507 71 312 5.2 17.4 0.00 0.00 0.00 21 1009.4
20260504192004 72 280 6.1 17.4 0.00 0.00 0.00 23 1009.3
20260504191507 73 272 7.8 20.9 0.00 0.00 0.00 23 1009.4
20260504191003 73 280 10.4 20.9 0.00 0.00 0.00 24 1009.4
20260504190503 73 258 8.7 15.6 0.00 0.00 0.00 24 1009.4
20260504190002 72 252 5.2 19.1 0.00 0.00 0.00 25 1009.4
20260504185504 72 290 9.6 19.1 0.00 0.00 0.00 24 1009.5
20260504185002 72 249 9.6 19.1 0.00 0.00 0.00 24 1009.5
20260504184503 72 285 4.3 11.3 0.00 0.00 0.00 25 1009.4
20260504184004 72 256 2.6 7.8 0.00 0.00 0.00 27 1009.5
20260504183502 71 248 0.9 11.3 0.00 0.00 0.00 26 1009.5
20260504183009 71 247 3.5 11.3 0.00 0.00 0.00 24 1009.6
20260504182503 71 244 2.6 7.0 0.00 0.00 0.00 27 1009.6
20260504182005 71 241 1.7 5.2 0.00 0.00 0.00 26 1009.6
20260504181505 72 247 1.7 5.2 0.00 0.00 0.00 26 1009.6
20260504181005 72 238 0.9 5.2 0.00 0.00 0.00 27 1009.7
20260504180505 71 253 0.9 3.5 0.00 0.00 0.00 26 1009.7
20260504180004 71 229 0.9 7.8 0.00 0.00 0.00 27 1009.8
20260504175503 70 214 0.0 7.8 0.00 0.00 0.00 27 1009.8
20260504175004 70 203 0.9 7.8 0.00 0.00 0.00 28 1009.9
20260504174503 70 270 0.0 3.5 0.00 0.00 0.00 28 1009.9
20260504174003 70 253 0.9 4.3 0.00 0.00 0.00 28 1010.0
20260504173504 69 262 0.0 4.3 0.00 0.00 0.00 27 1010.0
20260504173004 69 234 0.9 4.3 0.00 0.00 0.00 27 1010.1
20260504172504 69 231 0.0 7.8 0.00 0.00 0.00 27 1010.1
20260504172004 69 270 0.0 7.8 0.00 0.00 0.00 27 1010.1
20260504171506 69 272 1.7 7.8 0.00 0.00 0.00 26 1010.2
20260504171007 69 248 0.9 7.8 0.00 0.00 0.00 27 1010.3
20260504170504 68 253 3.5 8.7 0.00 0.00 0.00 26 1010.3
20260504151003 63 255 0.9 4.3 0.00 0.00 0.00 29 1010.5
20260504150504 62 241 0.0 2.6 0.00 0.00 0.00 31 1010.5
20260504141006 53 316 0.0 0.9 0.00 0.00 0.00 42 1010.8
20260504140506 53 293 0.0 0.9 0.00 0.00 0.00 42 1010.8
20260504130506 46 81 0.0 0.9 0.00 0.00 0.00 47 1010.7
20260504110503 45 318 0.0 0.9 0.00 0.00 0.00 43 1011.1
20260504100503 45 318 0.0 0.9 0.00 0.00 0.00 43 1011.2
20260504082004 49 318 0.0 0.0 0.00 0.00 0.00 41 1011.8
20260504081520 49 319 0.0 0.0 0.00 0.00 0.00 41 1011.8
20260504081004 49 318 0.0 0.0 0.00 0.00 0.00 42 1011.9
20260504080505 50 318 0.0 0.0 0.00 0.00 0.00 42 1012.0
20260504050507 57 323 0.0 0.0 0.00 0.00 0.00 35 1013.2
20260504045504 59 323 0.0 1.7 0.00 0.00 0.00 34 1013.1
20260504045004 59 323 0.0 3.5 0.00 0.00 0.00 33 1013.1
20260504044522 59 323 0.9 4.3 0.00 0.00 0.00 32 1013.1
20260504044006 59 323 0.0 5.2 0.00 0.00 0.00 31 1013.1
20260504043509 60 322 0.9 6.1 0.00 0.00 0.00 31 1013.1
20260504043024 60 321 2.6 6.1 0.00 0.00 0.00 30 1013.0
20260504042504 60 360 1.7 5.2 0.00 0.00 0.00 30 1013.0
20260504042010 60 1 0.9 8.7 0.00 0.00 0.00 30 1012.9
20260504041524 60 17 3.5 9.6 0.00 0.00 0.00 29 1013.1
20260504041006 59 12 2.6 9.6 0.00 0.00 0.00 29 1013.1